MIDAS 4 DEB, 194

Orbit data source: Space-Track

MIDAS 4 DEB, 194 is space debris in LEO originally from a launch on Sat, 21 Oct 1961 UTC via an ATLAS AGENA B launch vehicle from the Air Force Western Test Range (AFWTR). Debris objects in space refer to the collection of defunct objects orbiting the Earth. Examples of debris include non-operational satellites, rocket bodies, and fragments generated from explosions, collisions, or faulty payload assembly.

Loading next visibility...
Identifier
194, 1961-028C
Orbit
LEO
Country
Flag of USUS
Related business
Manufacturer
MIT-LL
Mission
Spacecraft
Bus & Motor
WESTFORD, Unknown motor
Mass
30 kg wet, 30 kg dry
Launch date (UTC)
1961-10-21 (64 years ago)
Launch vehicle
ATLAS AGENA B
Launch site
Air Force Western Test Range (AFWTR)
Object type
Payload
Rocket body
Debris
Shape & HBR
Unknown
Radar Cross Section
Medium (>0.1 m² and <1 m²)

Expand to show TLE details & history
Last TLE update: 2 days ago

TLE from 2 days ago
0 MIDAS 4 DEB
1 00194U 61028C   26035.49973048 -.00000017  00000-0 -52710-2 0  9998
2 00194  95.8260 220.7735 0414594 312.0723  44.5559  8.70111636 41591
Epoch: 2026-02-04T11:59Z
TLE epoch observation values (Epoch: 2026-02-04T11:59:36.713Z)
Latitude
-0.00003°
Longitude
-93.79489°
Altitude
3,322.935 km
Speed
6.502 km/s
True Right ascension
14h 43m 05s
True Declination
0° 00' 00"
Sunlit
Object was in daylight at epoch
Visualization orbit readout
Latitude
Unknown
Longitude
Unknown
Altitude
Unknown
Speed
Unknown
Apparent Right ascension
Unknown
Apparent Declination
Unknown
Sunlit
N/A
Visualization observer readout
Local Sidereal Time
06:35:43
Azimuth
Unknown
Elevation
Unknown
Doppler factor
Unknown
Orbital elements
Apogee altitude
4,018.701 km
Perigee altitude
3,190.927 km
Semi-major axis
9,982.951 km
Eccentricity
0.04146
Inclination
95.826°
RAAN
220.7735°
Arg. of periapsis
312.0723°
True anomaly
48.01465°
Mean anomaly
44.5559°
Eccentric anomaly
46.27248°
Mean motion
2.17598 °/min
Orbital period
165.44 mins
BSTAR
-0.005271
Loading maneuver chart data...
Computing Atmospheric mass density...
Loading historical data...
Loading historical data...
Loading historical data...
Loading historical data...
Loading historical data...
Loading historical data...
Loading historical data...

Documentation

Showing up to 5 results
|